Location: Vulcan
(50.4000°N, 113.2500°W)
Time: 20:52:53
(UTC-06:00)

Envisat - Visible Passes

Search period start: 15 October 2019 00:00
Search period end: 25 October 2019 00:00
Orbit: 764 x 766 km, 98.1° (Epoch: 15 October)

Date Brightness Start Highest point End Pass type
(mag) Time Alt. Az. Time Alt. Az. Time Alt. Az.
15 Oct 3.3 19:39:05 10° S 19:44:10 73° WSW 19:49:17 10° NNW visible
15 Oct 6.2 21:22:37 10° W 21:24:07 11° W 21:25:36 10° WNW visible
16 Oct 5.5 20:42:51 10° SW 20:46:50 23° W 20:50:50 10° NW visible
17 Oct 6.3 07:07:56 10° NE 07:10:38 14° E 07:13:18 10° ESE visible
17 Oct 4.2 20:04:55 10° S 20:09:45 44° W 20:14:39 10° NNW visible
18 Oct 3.0 19:27:48 10° SSE 19:32:53 88° WSW 19:38:01 10° NNW visible
18 Oct 6.1 21:10:03 10° WSW 21:12:40 14° W 21:15:19 10° NW visible
19 Oct 5.1 20:31:08 10° SSW 20:35:27 28° W 20:39:48 10° NW visible
20 Oct 6.6 06:57:35 10° ENE 06:59:11 11° E 07:00:47 10° ESE visible
20 Oct 3.8 19:53:28 10° S 19:58:27 55° W 20:03:27 10° NNW visible
21 Oct 3.0 19:16:34 10° SSE 19:21:38 77° ENE 19:26:44 10° NNW visible
21 Oct 5.8 20:57:56 10° SW 21:01:15 17° W 21:04:35 10° NW visible
22 Oct 6.0 07:21:30 10° NE 07:25:04 19° E 07:28:38 10° SE visible
22 Oct 4.7 20:19:30 10° SSW 20:24:05 34° W 20:28:43 10° NNW visible
23 Oct 3.4 19:42:05 10° S 19:47:09 67° WSW 19:52:14 10° NNW visible
23 Oct 6.3 21:26:39 10° W 21:27:09 10° W 21:27:41 10° WNW visible
24 Oct 3.0 19:05:23 10° SSE 19:10:23 63° ENE 19:15:26 10° N visible
24 Oct 5.5 20:46:02 10° SW 20:49:51 21° W 20:53:41 10° NW visible
